STARLINK-1687 (46541 NORAD) Tracking and Keplerian Element Data

This shows tracking and keplerian element data for the satellite.

Feedback or suggestion? Click here.




ElementValue
Catalog46541
NameSTARLINK-1687
Epoch Orbit176
Epoch Day335.91670139
Epoch Year2020
RAAN168.5158
Inclination52.9998
Eccentricity0.0002545
Argument of Perigee20.1245
Mean Anonmoly175.9586
Mean Motion15.62778633
Decay Rate-0.00059193
L11 46541U 20070K 20335.91670139 -.00059193 00000-0 -64455-3 0 9994
L22 46541 52.9998 168.5158 0002545 20.1245 175.9586 15.62778633 1761

Live tracking and technical data element details for STARLINK-1687 (NORAD 46541). STARLINK-1687 can be tracked NOW for your location showing map with azimuth and elevation plus other details from your city location.

Track the satellite on the map from your city or location and see movement details for azimuth, elevation, latitude, longitude, range, height, and movement on the map or in text.







IsCatalogInMostPopularTable: catalog: 46541, numindb: 15
Update: records affected: 1



GetName: 46541 STARLINK-1687

Hit Count: updated at: Tue, 01 Dec 2020 20:15:50 GMT